DW0937 Weather Reports


Display with metric or nautical units.
time (UTC)temp
F
wind
direction
speed
MPH
gust
MPH
rain 1hr
in
rain 24hr
in
rain mn
in
humidity
%
barometer
mb
20260905052331 69 12 1.0 5.0 0.00 0.00 0.00 88 1014.2
20260905051832 69 297 1.0 5.0 0.00 0.00 0.00 88 1014.3
20260905051331 69 355 1.0 4.0 0.00 0.00 0.00 88 1014.1
20260905050829 69 63 1.0 4.0 0.00 0.00 0.00 88 1014.0
20260905050326 70 85 0.0 4.0 0.00 0.00 0.00 87 1014.0
20260905045824 70 35 0.0 4.0 0.00 0.00 0.00 87 1014.0
20260905045325 70 322 0.0 3.0 0.00 0.00 0.00 87 1014.1
20260905044826 70 319 1.0 4.0 0.00 0.00 0.00 87 1014.1
20260905044327 70 15 1.0 4.0 0.00 0.00 0.00 86 1014.1
20260905043825 70 332 1.0 4.0 0.00 0.00 0.00 86 1014.1
20260905043325 71 102 0.0 4.0 0.00 0.00 0.00 86 1014.2
20260905042825 71 345 0.0 2.0 0.00 0.00 0.00 86 1014.2
20260905042544 71 346 0.0 3.0 0.00 0.00 0.00 85 1014.3
20260905041825 71 90 1.0 7.0 0.00 0.00 0.00 85 1014.3
20260905041549 71 346 1.0 7.0 0.00 0.00 0.00 85 1014.3
20260905040825 71 5 0.0 3.0 0.00 0.00 0.00 84 1014.2
20260905040325 72 39 1.0 5.0 0.00 0.00 0.00 84 1014.0
20260905035824 72 328 1.0 5.0 0.00 0.00 0.00 84 1014.2
20260905035324 72 308 1.0 5.0 0.00 0.00 0.00 83 1014.2
20260905035048 72 80 2.0 8.0 0.00 0.00 0.00 83 1014.2
20260905034325 72 25 2.0 8.0 0.00 0.00 0.00 83 1014.2
20260905033824 73 24 1.0 5.0 0.00 0.00 0.00 82 1014.1
20260905033323 73 151 2.0 6.0 0.00 0.00 0.00 82 1014.1
20260905032822 73 5 1.0 6.0 0.00 0.00 0.00 82 1014.1
20260905032320 73 329 1.0 4.0 0.00 0.00 0.00 81 1014.1
20260905031818 73 336 1.0 6.0 0.00 0.00 0.00 81 1014.0
20260905031320 74 5 2.0 6.0 0.00 0.00 0.00 81 1014.0
20260905030818 74 5 2.0 6.0 0.00 0.00 0.00 81 1014.0
20260905030320 74 15 2.0 6.0 0.00 0.00 0.00 80 1014.0
20260905025833 74 25 1.0 6.0 0.00 0.00 0.00 80 1014.0
20260905025318 74 322 2.0 6.0 0.00 0.00 0.00 80 1013.9
20260905024817 75 17 2.0 4.0 0.00 0.00 0.00 79 1013.7
20260905024315 75 0 2.0 5.0 0.00 0.00 0.00 79 1013.7
20260905023813 75 308 1.0 6.0 0.00 0.00 0.00 78 1013.6
20260905023317 75 42 1.0 6.0 0.00 0.00 0.00 78 1013.5
20260905022815 76 5 2.0 7.0 0.00 0.00 0.00 77 1013.5
20260905022315 76 355 3.0 7.0 0.00 0.00 0.00 77 1013.5
20260905021826 76 325 2.0 9.0 0.00 0.00 0.00 77 1013.5
20260905021316 76 317 2.0 9.0 0.00 0.00 0.00 76 1013.4
20260905020813 77 40 3.0 9.0 0.00 0.00 0.00 76 1013.4
20260905020313 77 294 3.0 7.0 0.00 0.00 0.00 75 1013.4
20260905015813 77 59 2.0 6.0 0.00 0.00 0.00 75 1013.3
20260905015314 78 350 2.0 10.0 0.00 0.00 0.00 75 1013.3
20260905015027 78 40 3.0 10.0 0.00 0.00 0.00 74 1013.2
20260905014311 78 338 3.0 8.0 0.00 0.00 0.00 74 1013.2
20260905013809 78 355 2.0 8.0 0.00 0.00 0.00 74 1013.1
20260905013754 79 14 2.0 8.0 0.00 0.00 0.00 74 1013.1
20260905013023 79 320 2.0 6.0 0.00 0.00 0.00 74 1013.0
20260905012255 79 334 1.0 5.0 0.00 0.00 0.00 74 1012.9
20260905011755 79 285 0.0 2.0 0.00 0.00 0.00 73 1012.9
20260905011254 80 346 0.0 3.0 0.00 0.00 0.00 73 1012.8
20260905010755 80 346 0.0 3.0 0.00 0.00 0.00 72 1012.7
20260905010252 80 30 0.0 2.0 0.00 0.00 0.00 72 1012.6
20260905005753 80 48 0.0 2.0 0.00 0.00 0.00 71 1012.5
20260905005306 81 48 0.0 2.0 0.00 0.00 0.00 71 1012.6
20260905004749 81 48 0.0 2.0 0.00 0.00 0.00 70 1012.7
20260905004247 81 319 1.0 3.0 0.00 0.00 0.00 70 1012.6
20260905003746 81 316 0.0 3.0 0.00 0.00 0.00 69 1012.6
20260905003248 82 40 0.0 2.0 0.00 0.00 0.00 69 1012.5
20260905002746 82 40 0.0 3.0 0.00 0.00 0.00 68 1012.5
20260905002248 82 67 1.0 4.0 0.00 0.00 0.00 68 1012.4
20260905001744 82 89 1.0 4.0 0.00 0.00 0.00 68 1012.3
20260905001244 83 321 1.0 4.0 0.00 0.00 0.00 68 1012.3
20260905000744 83 11 1.0 4.0 0.00 0.00 0.00 67 1012.4
20260905000241 83 320 1.0 4.0 0.00 0.00 0.00 67 1012.3
20260904235734 83 292 2.0 7.0 0.00 0.00 0.00 67 1012.3
20260904235235 83 135 1.0 7.0 0.00 0.00 0.00 67 1012.3
20260904234958 83 328 1.0 4.0 0.00 0.00 0.00 66 1012.3
20260904234234 84 52 1.0 4.0 0.00 0.00 0.00 67 1012.2
20260904233734 84 351 1.0 4.0 0.00 0.00 0.00 67 1012.2
20260904233234 84 58 1.0 5.0 0.00 0.00 0.00 67 1012.2
20260904232734 84 334 1.0 5.0 0.00 0.00 0.00 67 1012.2
20260904232236 84 344 2.0 5.0 0.00 0.00 0.00 66 1012.2
20260904231735 84 339 2.0 5.0 0.00 0.00 0.00 66 1012.1
20260904231709 84 325 3.0 7.0 0.00 0.00 0.00 66 1012.1
20260904230733 85 349 2.0 7.0 0.00 0.00 0.00 66 1012.2
20260904230232 85 296 1.0 6.0 0.00 0.00 0.00 66 1012.1
20260904225732 85 329 1.0 6.0 0.00 0.00 0.00 67 1012.0
20260904225233 84 0 1.0 3.0 0.00 0.00 0.00 67 1012.0
20260904224955 84 88 2.0 5.0 0.00 0.00 0.00 67 1012.0
20260904224232 84 5 2.0 5.0 0.00 0.00 0.00 67 1011.9
20260904223732 84 338 2.0 6.0 0.00 0.00 0.00 68 1011.9
20260904223233 84 330 3.0 9.0 0.00 0.00 0.00 68 1011.9
20260904222732 84 309 3.0 9.0 0.00 0.00 0.00 68 1011.8
20260904222453 85 298 3.0 8.0 0.00 0.00 0.00 68 1011.8
20260904221733 85 355 2.0 6.0 0.00 0.00 0.00 68 1011.7
20260904221232 85 5 2.0 6.0 0.00 0.00 0.00 69 1011.7
20260904220733 85 344 2.0 6.0 0.00 0.00 0.00 69 1011.6
20260904220231 85 344 2.0 6.0 0.00 0.00 0.00 69 1011.5
20260904215728 85 24 2.0 7.0 0.00 0.00 0.00 69 1011.4
20260904215226 85 340 2.0 7.0 0.00 0.00 0.00 71 1011.4
20260904214724 85 126 2.0 7.0 0.00 0.00 0.00 71 1011.4
20260904214225 85 335 2.0 7.0 0.00 0.00 0.00 71 1011.4
20260904214042 85 350 2.0 8.0 0.00 0.00 0.00 70 1011.4
20260904213940 85 323 3.0 8.0 0.00 0.00 0.00 70 1011.4
20260904212948 85 335 2.0 8.0 0.00 0.00 0.00 70 1011.5
20260904212220 85 321 2.0 8.0 0.00 0.00 0.00 70 1011.4
20260904211717 85 313 3.0 5.0 0.00 0.00 0.00 70 1011.5
20260904211219 85 350 2.0 4.0 0.00 0.00 0.00 71 1011.6
20260904210718 85 322 2.0 5.0 0.00 0.00 0.00 72 1011.5
20260904210216 84 318 2.0 6.0 0.00 0.00 0.00 71 1011.6
20260904205716 84 306 2.0 6.0 0.00 0.00 0.00 71 1011.6
20260904205438 84 309 2.0 5.0 0.00 0.00 0.00 71 1011.6
20260904204714 84 90 2.0 5.0 0.00 0.00 0.00 71 1011.6
20260904204434 84 327 2.0 5.0 0.00 0.00 0.00 71 1011.6
20260904203715 84 5 2.0 7.0 0.00 0.00 0.00 72 1011.5
20260904203214 84 302 3.0 7.0 0.00 0.00 0.00 72 1011.6
20260904202728 84 11 3.0 6.0 0.00 0.00 0.00 72 1011.5
20260904202214 84 344 2.0 7.0 0.00 0.00 0.00 72 1011.6
20260904201711 84 338 2.0 7.0 0.00 0.00 0.00 72 1011.5
20260904201204 84 331 2.0 7.0 0.00 0.00 0.00 73 1011.6
20260904200935 83 75 2.0 6.0 0.00 0.00 0.00 74 1011.6
20260904200205 83 75 2.0 8.0 0.00 0.00 0.00 74 1011.6
20260904195703 83 289 2.0 8.0 0.00 0.00 0.00 74 1011.6
20260904195206 83 32 2.0 7.0 0.00 0.00 0.00 74 1011.7
20260904194704 83 32 3.0 7.0 0.00 0.00 0.00 74 1011.7
20260904194205 83 319 3.0 7.0 0.00 0.00 0.00 74 1011.7
20260904193703 83 321 2.0 6.0 0.00 0.00 0.00 75 1011.7
20260904193206 83 315 2.0 6.0 0.00 0.00 0.00 74 1011.7
20260904192705 83 349 2.0 6.0 0.00 0.00 0.00 74 1011.7
20260904192205 82 49 3.0 8.0 0.00 0.00 0.00 76 1011.8
20260904191704 83 315 2.0 8.0 0.00 0.00 0.00 75 1011.8
20260904191204 82 10 2.0 9.0 0.00 0.00 0.00 76 1011.8
20260904190706 82 88 2.0 9.0 0.00 0.00 0.00 75 1011.8
20260904190203 83 313 2.0 8.0 0.00 0.00 0.00 76 1011.8
20260904185702 82 300 3.0 8.0 0.00 0.00 0.00 77 1011.8
20260904185202 82 347 3.0 8.0 0.00 0.00 0.00 78 1011.7
20260904185148 81 355 3.0 6.0 0.00 0.00 0.00 78 1011.7
20260904184201 81 309 2.0 6.0 0.00 0.00 0.00 79 1011.7
20260904183700 81 298 3.0 7.0 0.00 0.00 0.00 80 1011.8
20260904183201 80 15 3.0 8.0 0.00 0.00 0.00 80 1011.8
20260904182700 80 317 3.0 8.0 0.00 0.00 0.00 81 1011.8
20260904182159 80 321 3.0 8.0 0.00 0.00 0.00 81 1011.7
20260904181700 80 330 3.0 8.0 0.00 0.00 0.00 82 1011.7
20260904181200 80 339 3.0 6.0 0.00 0.00 0.00 82 1011.8
20260904180700 80 348 3.0 7.0 0.00 0.00 0.00 82 1011.8
20260904180200 80 313 3.0 8.0 0.00 0.00 0.00 83 1011.7
20260904180146 79 315 3.0 8.0 0.00 0.00 0.00 83 1011.7
20260904175200 79 327 3.0 8.0 0.00 0.00 0.00 83 1011.7
20260904174659 79 315 3.0 8.0 0.00 0.00 0.00 83 1011.7
20260904174200 80 5 3.0 7.0 0.00 0.00 0.00 83 1011.7
20260904173932 79 327 4.0 10.0 0.00 0.00 0.00 83 1011.6
20260904173200 80 338 3.0 10.0 0.00 0.00 0.00 83 1011.6
20260904172702 80 351 2.0 6.0 0.00 0.00 0.00 84 1011.5
20260904172203 80 320 2.0 6.0 0.00 0.00 0.00 84 1011.5
20260904171926 80 24 2.0 6.0 0.00 0.00 0.00 84 1011.5
20260904171200 80 324 2.0 5.0 0.00 0.00 0.00 85 1011.4
20260904170700 79 314 2.0 6.0 0.00 0.00 0.00 84 1011.4
20260904170201 80 342 2.0 6.0 0.00 0.00 0.00 84 1011.5
20260904165700 80 333 2.0 6.0 0.00 0.00 0.00 84 1011.6
20260904165203 80 350 2.0 6.0 0.00 0.00 0.00 84 1011.4
20260904164700 80 346 2.0 5.0 0.00 0.00 0.00 85 1011.4
20260904164201 79 342 2.0 5.0 0.00 0.00 0.00 85 1011.3
20260904163701 79 321 2.0 5.0 0.00 0.00 0.00 85 1011.3
20260904163158 79 340 2.0 5.0 0.00 0.00 0.00 85 1011.2
20260904162658 79 334 2.0 8.0 0.00 0.00 0.00 85 1011.2
20260904162158 79 327 2.0 8.0 0.00 0.00 0.00 84 1011.3
20260904161659 80 19 1.0 5.0 0.00 0.00 0.00 84 1011.2
20260904161159 80 26 1.0 5.0 0.00 0.00 0.00 84 1011.1
20260904160810 81 339 3.0 6.0 0.00 0.00 0.00 83 1011.0
20260904160716 80 344 3.0 6.0 0.00 0.00 0.00 83 1011.0
20260904160708 80 339 2.0 5.0 0.00 0.00 0.00 84 1011.0
20260904155157 81 333 2.0 5.0 0.00 0.00 0.00 83 1010.9
20260904154659 81 313 2.0 5.0 0.00 0.00 0.00 83 1010.9
20260904154159 81 349 2.0 6.0 0.00 0.00 0.00 83 1010.8
20260904153659 82 345 2.0 6.0 0.00 0.00 0.00 84 1010.8
20260904153158 81 22 2.0 5.0 0.00 0.00 0.00 84 1010.6
20260904152658 81 26 2.0 4.0 0.00 0.00 0.00 84 1010.5
20260904152159 81 338 1.0 4.0 0.00 0.00 0.00 83 1010.5
20260904151659 81 250 0.0 2.0 0.00 0.00 0.00 84 1010.4
20260904151157 80 0 1.0 3.0 0.00 0.00 0.00 85 1010.3
20260904150658 80 5 1.0 3.0 0.00 0.00 0.00 86 1010.2
20260904150419 79 350 1.0 3.0 0.00 0.00 0.00 87 1010.2
20260904150138 79 350 1.0 3.0 0.00 0.00 0.00 87 1010.2
20260904145158 78 0 1.0 3.0 0.00 0.00 0.00 88 1009.9
20260904144919 78 67 0.0 2.0 0.00 0.00 0.00 89 1009.8
20260904144813 77 69 1.0 7.0 0.00 0.00 0.00 90 1009.9
20260904143659 77 72 2.0 7.0 0.00 0.00 0.00 90 1009.8
20260904143158 77 96 1.0 6.0 0.00 0.00 0.00 90 1009.8
20260904142658 77 107 1.0 2.0 0.00 0.00 0.00 92 1009.9
20260904142157 76 333 1.0 4.0 0.00 0.00 0.00 92 1010.0
20260904141923 76 333 2.0 4.0 0.00 0.00 0.00 94 1010.0
20260904141158 75 325 1.0 4.0 0.00 0.00 0.00 94 1010.0
20260904140659 75 338 0.0 3.0 0.00 0.00 0.00 95 1009.9
20260904140421 74 103 1.0 3.0 0.00 0.00 0.00 95 1010.0
20260904135656 74 46 0.0 3.0 0.00 0.00 0.00 95 1010.0
20260904135157 74 329 0.0 1.0 0.00 0.00 0.00 95 1010.2
20260904135143 74 329 1.0 3.0 0.00 0.00 0.00 95 1010.2
20260904134155 74 325 1.0 3.0 0.00 0.00 0.00 95 1010.2
20260904133652 74 108 1.0 3.0 0.00 0.00 0.00 95 1010.0
20260904133154 74 327 1.0 4.0 0.00 0.00 0.00 95 1010.2
20260904132652 74 327 1.0 4.0 0.00 0.00 0.00 95 1010.0
20260904132639 74 324 1.0 3.0 0.00 0.00 0.00 95 1009.9
20260904131650 74 335 1.0 3.0 0.00 0.00 0.00 95 1009.9
20260904131145 74 341 0.0 3.0 0.00 0.00 0.00 95 1009.9
20260904130639 73 17 0.0 3.0 0.00 0.00 0.00 95 1009.8
20260904130137 73 16 0.0 3.0 0.00 0.00 0.00 95 1009.8
20260904125636 73 64 0.0 2.0 0.00 0.00 0.00 95 1009.7
20260904125135 73 64 0.0 2.0 0.00 0.00 0.00 95 1009.7
20260904124902 73 64 0.0 2.0 0.00 0.00 0.00 95 1009.6
20260904124136 73 71 0.0 0.0 0.00 0.00 0.00 95 1009.5
20260904123637 73 71 1.0 2.0 0.00 0.00 0.00 95 1009.4
20260904123135 73 71 1.0 3.0 0.00 0.00 0.00 95 1009.3
20260904122635 73 91 1.0 3.0 0.00 0.00 0.00 95 1009.2
20260904122136 73 78 1.0 3.0 0.00 0.00 0.00 95 1009.3
20260904121636 73 77 0.0 1.0 0.00 0.00 0.00 95 1009.3
20260904121134 73 78 0.0 2.0 0.00 0.00 0.00 95 1009.3
20260904120634 73 78 0.0 2.0 0.00 0.00 0.00 95 1009.2
20260904120133 73 78 0.0 3.0 0.00 0.00 0.00 95 1009.2
20260904115631 73 77 1.0 2.0 0.00 0.00 0.00 95 1009.2
20260904115127 73 77 1.0 3.0 0.00 0.00 0.00 95 1009.1
20260904114629 73 77 0.0 3.0 0.00 0.00 0.00 95 1009.1
20260904114128 73 74 0.0 0.0 0.00 0.00 0.00 95 1009.0
20260904113629 73 74 0.0 1.0 0.00 0.00 0.00 95 1009.0
20260904113126 73 74 1.0 2.0 0.00 0.00 0.00 95 1008.8
20260904112624 73 74 1.0 2.0 0.00 0.00 0.00 95 1009.0
20260904112121 73 76 1.0 2.0 0.00 0.00 0.00 95 1008.8
20260904111621 73 74 1.0 2.0 0.00 0.00 0.00 95 1009.0
20260904111119 73 75 0.0 2.0 0.00 0.00 0.00 94 1008.8
20260904110617 73 75 0.0 2.0 0.00 0.00 0.00 94 1008.8
20260904110118 73 75 1.0 3.0 0.00 0.00 0.00 94 1008.8
20260904105617 73 77 1.0 3.0 0.00 0.00 0.00 94 1008.7
20260904105335 73 76 1.0 3.0 0.00 0.00 0.00 94 1008.9
20260904104611 73 75 1.0 3.0 0.00 0.00 0.00 94 1008.7
20260904104109 73 75 1.0 3.0 0.00 0.00 0.00 94 1008.8
20260904103608 73 82 1.0 3.0 0.00 0.00 0.00 94 1008.9
20260904103108 73 89 0.0 3.0 0.00 0.00 0.00 94 1008.8
20260904102603 73 95 0.0 2.0 0.00 0.00 0.00 94 1008.9
20260904102103 73 98 0.0 0.0 0.00 0.00 0.00 94 1008.9
20260904101600 74 99 0.0 0.0 0.00 0.00 0.00 94 1009.0
20260904101059 74 99 0.0 0.0 0.00 0.00 0.00 93 1008.9
20260904100559 74 99 0.0 0.0 0.00 0.00 0.00 94 1008.9
20260904100112 74 99 0.0 0.0 0.00 0.00 0.00 93 1009.0
20260904095559 74 99 0.0 0.0 0.00 0.00 0.00 93 1008.9
20260904095100 74 99 0.0 0.0 0.00 0.00 0.00 93 1008.9
20260904094559 74 99 0.0 0.0 0.00 0.00 0.00 93 1008.8
20260904094100 74 99 0.0 0.0 0.00 0.00 0.00 93 1008.8
20260904093600 74 99 0.0 0.0 0.00 0.00 0.00 93 1008.7
20260904093059 74 99 0.0 0.0 0.00 0.00 0.00 93 1008.7
20260904092559 74 99 0.0 0.0 0.00 0.00 0.00 93 1008.6
20260904091557 74 100 0.0 0.0 0.00 0.00 0.00 92 1008.5
20260904091057 74 100 0.0 1.0 0.00 0.00 0.00 92 1008.5
20260904090557 74 100 0.0 3.0 0.00 0.00 0.00 92 1008.4
20260904090259 74 100 1.0 3.0 0.00 0.00 0.00 92 1008.3
20260904090209 74 100 1.0 3.0 0.00 0.00 0.00 92 1008.3
20260904085058 74 100 1.0 3.0 0.00 0.00 0.00 92 1008.4
20260904084555 74 101 0.0 2.0 0.00 0.00 0.00 92 1008.3
20260904084056 74 145 0.0 0.0 0.00 0.00 0.00 91 1008.3
20260904083555 75 145 0.0 0.0 0.00 0.00 0.00 91 1008.2
20260904083052 75 145 0.0 0.0 0.00 0.00 0.00 91 1008.2
20260904082549 75 145 0.0 0.0 0.00 0.00 0.00 91 1008.2
20260904082049 75 145 0.0 0.0 0.00 0.00 0.00 91 1008.2
20260904081547 75 145 0.0 0.0 0.00 0.00 0.00 91 1008.2
20260904081047 75 145 0.0 0.0 0.00 0.00 0.00 91 1008.3
20260904080801 75 145 0.0 0.0 0.00 0.00 0.00 91 1008.2
20260904080057 75 145 1.0 0.0 0.00 0.00 0.00 91 1008.2
20260904075007 75 145 2.0 4.0 0.00 0.00 0.00 91 1008.2
20260904074504 75 136 2.0 4.0 0.00 0.00 0.00 90 1008.2
20260904074005 75 140 1.0 3.0 0.00 0.00 0.00 90 1008.2
20260904073503 75 144 1.0 3.0 0.00 0.00 0.00 90 1008.2
20260904073006 75 140 1.0 3.0 0.00 0.00 0.00 90 1008.2
20260904072500 76 141 1.0 4.0 0.00 0.00 0.00 90 1008.2
20260904072000 76 140 2.0 4.0 0.00 0.00 0.00 90 1008.3
20260904071459 76 139 1.0 3.0 0.00 0.00 0.00 90 1008.2
20260904071000 76 136 1.0 2.0 0.00 0.00 0.00 90 1008.3
20260904070457 76 134 1.0 3.0 0.00 0.00 0.00 90 1008.3
20260904065956 76 134 1.0 3.0 0.00 0.00 0.00 90 1008.3
20260904065453 76 130 1.0 3.0 0.00 0.00 0.00 89 1008.4
20260904064952 76 129 0.0 2.0 0.00 0.00 0.00 89 1008.4
20260904063953 76 133 1.0 3.0 0.00 0.00 0.00 89 1008.4
20260904063451 76 131 1.0 3.0 0.00 0.00 0.00 89 1008.4
20260904062950 76 132 1.0 3.0 0.00 0.00 0.00 89 1008.4
20260904062443 76 126 1.0 3.0 0.00 0.00 0.00 88 1008.4
20260904061937 76 131 1.0 3.0 0.00 0.00 0.00 88 1008.4
20260904061434 76 130 1.0 3.0 0.00 0.00 0.00 88 1008.4
20260904060934 76 170 1.0 3.0 0.00 0.00 0.00 88 1008.4
20260904060655 76 170 2.0 4.0 0.00 0.00 0.00 88 1008.4
20260904055932 76 153 1.0 4.0 0.00 0.00 0.00 88 1008.4
20260904055433 77 148 1.0 3.0 0.00 0.00 0.00 87 1008.3
20260904054930 77 148 1.0 3.0 0.00 0.00 0.00 87 1008.4
20260904054921 77 157 2.0 4.0 0.00 0.00 0.00 87 1008.4
20260904054152 77 121 2.0 4.0 0.00 0.00 0.00 87 1008.4
20260904053431 77 153 2.0 4.0 0.00 0.00 0.00 87 1008.4
20260904052931 77 155 2.0 4.0 0.00 0.00 0.00 87 1008.4